QFA478 YMML-YSSY

Flight info

Callsign QFA478
Flight time 1h 6m
Altitude 37000
Route DOSEL2/34 DOSEL Y59 RIVET
Aircraft A21N/M-SDE3FGHIRWY/LB1

Departure

Time 2026-05-04 08:16
Airport Melbourne Airport (YMML)

Arrival

Time 2026-05-04 09:22
Airport Sydney Kingsford Smith International Airport (YSSY)
Time Latitude Longitude Altitude Speed Heading
2026-05-04 07:26 -37.66828 144.85027 410 ft 0 kts 262°
2026-05-04 07:57 -37.66826 144.85040 410 ft 2 kts 261°
2026-05-04 07:57 -37.66824 144.85060 410 ft 2 kts 256°
2026-05-04 07:58 -37.66816 144.85077 411 ft 2 kts 222°
2026-05-04 07:58 -37.66802 144.85088 411 ft 2 kts 194°
2026-05-04 07:58 -37.66786 144.85089 411 ft 2 kts 180°
2026-05-04 07:58 -37.66770 144.85091 411 ft 2 kts 186°
2026-05-04 07:59 -37.66754 144.85092 411 ft 2 kts 180°
2026-05-04 07:59 -37.66739 144.85091 410 ft 2 kts 175°
2026-05-04 07:59 -37.66723 144.85089 410 ft 2 kts 170°
2026-05-04 07:59 -37.66708 144.85086 410 ft 2 kts 171°
2026-05-04 08:00 -37.66693 144.85083 409 ft 2 kts 171°
2026-05-04 08:00 -37.66677 144.85080 409 ft 2 kts 171°
2026-05-04 08:00 -37.66662 144.85077 409 ft 2 kts 171°
2026-05-04 08:02 -37.66586 144.85139 409 ft 2 kts 262°
2026-05-04 08:02 -37.66586 144.85144 409 ft 0 kts 261°
2026-05-04 08:05 -37.66588 144.85129 409 ft 3 kts 261°
2026-05-04 08:05 -37.66580 144.85078 409 ft 8 kts 312°
2026-05-04 08:06 -37.66533 144.85020 409 ft 9 kts 290°
2026-05-04 08:06 -37.66539 144.84927 408 ft 11 kts 261°
2026-05-04 08:06 -37.66569 144.84821 405 ft 13 kts 219°
2026-05-04 08:06 -37.66639 144.84731 402 ft 16 kts 258°
2026-05-04 08:08 -37.66902 144.84004 388 ft 17 kts 171°
2026-05-04 08:08 -37.67031 144.84029 385 ft 19 kts 171°
2026-05-04 08:10 -37.67868 144.84132 361 ft 3 kts 255°
2026-05-04 08:11 -37.67868 144.84128 361 ft 0 kts 257°
2026-05-04 08:13 -37.67873 144.84103 360 ft 6 kts 259°
2026-05-04 08:14 -37.67883 144.84032 359 ft 9 kts 260°
2026-05-04 08:14 -37.67884 144.83978 359 ft 3 kts 306°
2026-05-04 08:14 -37.67866 144.83969 359 ft 0 kts 354°
2026-05-04 08:16 -37.63894 144.83235 1893 ft 161 kts 349°
2026-05-04 08:16 -37.62828 144.83037 2641 ft 155 kts 346°
2026-05-04 08:16 -37.61720 144.82819 3082 ft 165 kts 345°
2026-05-04 08:17 -37.60534 144.82575 3506 ft 177 kts 345°
2026-05-04 08:17 -37.59242 144.82480 3850 ft 199 kts 359°
2026-05-04 08:17 -37.57812 144.83025 4134 ft 229 kts 16°
2026-05-04 08:17 -37.56273 144.83929 4535 ft 250 kts 19°
2026-05-04 08:19 -37.44335 144.91386 9679 ft 287 kts 29°
2026-05-04 08:19 -37.42836 144.93092 10362 ft 298 kts 44°
2026-05-04 08:20 -37.41538 144.95236 10795 ft 314 kts 49°
2026-05-04 08:20 -37.40248 144.97549 11304 ft 325 kts 50°
2026-05-04 08:20 -37.38943 144.99919 11990 ft 328 kts 50°
2026-05-04 08:20 -37.37617 145.02316 12701 ft 330 kts 50°
2026-05-04 08:21 -37.36258 145.04748 13376 ft 333 kts 50°
2026-05-04 08:21 -37.34900 145.07167 14015 ft 336 kts 50°
2026-05-04 08:21 -37.33508 145.09634 14668 ft 339 kts 50°
2026-05-04 08:21 -37.32096 145.12126 15302 ft 342 kts 50°
2026-05-04 08:22 -37.30706 145.14581 15918 ft 345 kts 50°
2026-05-04 08:22 -37.29259 145.17133 16524 ft 348 kts 50°
2026-05-04 08:24 -37.19043 145.35089 20270 ft 369 kts 49°
2026-05-04 08:24 -37.17543 145.37715 20784 ft 371 kts 49°
2026-05-04 08:24 -37.16026 145.40369 21280 ft 374 kts 48°
2026-05-04 08:24 -37.14491 145.43053 21754 ft 376 kts 48°
2026-05-04 08:25 -37.12935 145.45769 22240 ft 379 kts 48°
2026-05-04 08:25 -37.11327 145.48570 22689 ft 382 kts 47°
2026-05-04 08:25 -37.09743 145.51335 23128 ft 384 kts 47°
2026-05-04 08:25 -37.08162 145.54088 23572 ft 386 kts 47°
2026-05-04 08:26 -37.06592 145.56819 23973 ft 389 kts 46°
2026-05-04 08:27 -36.95114 145.76720 26512 ft 401 kts 44°
2026-05-04 08:28 -36.93460 145.79575 26826 ft 403 kts 44°
2026-05-04 08:28 -36.91792 145.82448 27124 ft 406 kts 44°
2026-05-04 08:28 -36.90094 145.85376 27442 ft 408 kts 43°
2026-05-04 08:28 -36.88399 145.88304 27813 ft 408 kts 43°
2026-05-04 08:29 -36.86702 145.91223 28144 ft 410 kts 43°
2026-05-04 08:29 -36.84989 145.94165 28449 ft 412 kts 43°
2026-05-04 08:29 -36.83282 145.97099 28769 ft 414 kts 43°
2026-05-04 08:31 -36.71059 146.18018 30788 ft 429 kts 43°
2026-05-04 08:33 -36.58519 146.39366 32508 ft 445 kts 44°
2026-05-04 08:33 -36.56687 146.42474 32745 ft 447 kts 44°
2026-05-04 08:35 -36.43700 146.64421 34312 ft 455 kts 45°
2026-05-04 08:35 -36.41824 146.67580 34487 ft 456 kts 44°
2026-05-04 08:35 -36.39943 146.70747 34675 ft 457 kts 44°
2026-05-04 08:35 -36.38064 146.73904 34844 ft 458 kts 44°
2026-05-04 08:37 -36.26659 146.93004 35870 ft 466 kts 45°
2026-05-04 08:37 -36.24717 146.96248 36040 ft 467 kts 45°
2026-05-04 08:37 -36.22796 146.99455 36207 ft 468 kts 45°
2026-05-04 08:38 -36.20858 147.02684 36346 ft 469 kts 45°
2026-05-04 08:38 -36.18913 147.05922 36463 ft 472 kts 45°
2026-05-04 08:38 -36.16933 147.09216 36606 ft 473 kts 45°
2026-05-04 08:40 -36.03084 147.32159 37053 ft 479 kts 45°
2026-05-04 08:40 -36.01082 147.35465 37059 ft 480 kts 45°
2026-05-04 08:41 -35.97092 147.42044 37066 ft 480 kts 45°
2026-05-04 08:41 -35.93083 147.48636 37075 ft 481 kts 45°
2026-05-04 08:42 -35.89067 147.55229 37082 ft 481 kts 45°
2026-05-04 08:42 -35.85068 147.61781 37081 ft 480 kts 44°
2026-05-04 08:43 -35.81039 147.68368 37081 ft 479 kts 44°
2026-05-04 08:43 -35.77043 147.74895 37089 ft 479 kts 44°
2026-05-04 08:44 -35.72995 147.81485 37083 ft 480 kts 44°
2026-05-04 08:46 -35.56913 148.07565 37094 ft 480 kts 44°
2026-05-04 08:46 -35.52861 148.14105 37075 ft 480 kts 44°
2026-05-04 08:47 -35.48842 148.20581 37083 ft 480 kts 44°
2026-05-04 08:47 -35.44797 148.27081 37078 ft 478 kts 44°
2026-05-04 08:48 -35.40775 148.33536 37081 ft 478 kts 44°
2026-05-04 08:48 -35.36736 148.40006 37092 ft 479 kts 44°
2026-05-04 08:49 -35.32712 148.46442 37085 ft 477 kts 44°
2026-05-04 08:50 -35.18579 148.68944 37087 ft 476 kts 43°
2026-05-04 08:51 -35.14554 148.75326 37081 ft 475 kts 43°
2026-05-04 08:51 -35.10505 148.81734 37084 ft 476 kts 43°
2026-05-04 08:52 -35.06475 148.88100 37083 ft 475 kts 43°
2026-05-04 08:52 -35.02439 148.94464 37084 ft 476 kts 43°
2026-05-04 08:54 -34.86076 149.20151 32749 ft 480 kts 43°
2026-05-04 08:55 -34.84026 149.23360 32256 ft 475 kts 43°
2026-05-04 08:55 -34.82016 149.26503 31779 ft 469 kts 43°
2026-05-04 08:55 -34.80027 149.29611 31308 ft 464 kts 43°
2026-05-04 08:55 -34.78038 149.32709 30837 ft 459 kts 43°
2026-05-04 08:57 -34.66991 149.55070 27637 ft 426 kts 53°
2026-05-04 09:01 -34.48260 149.97691 21350 ft 380 kts 53°
2026-05-04 09:01 -34.47001 150.00539 20915 ft 377 kts 53°
2026-05-04 09:01 -34.45759 150.03346 20489 ft 374 kts 54°
2026-05-04 09:01 -34.44514 150.06155 20061 ft 371 kts 54°
2026-05-04 09:02 -34.43293 150.08907 19628 ft 368 kts 54°
2026-05-04 09:02 -34.42077 150.11647 19190 ft 366 kts 54°
2026-05-04 09:02 -34.40888 150.14325 18785 ft 363 kts 54°
2026-05-04 09:02 -34.39690 150.17018 18352 ft 361 kts 54°
2026-05-04 09:03 -34.38488 150.19717 17921 ft 358 kts 54°
2026-05-04 09:03 -34.37277 150.22435 17505 ft 363 kts 54°
2026-05-04 09:03 -34.36036 150.25206 17049 ft 366 kts 54°
2026-05-04 09:03 -34.34823 150.27928 16603 ft 364 kts 54°
2026-05-04 09:04 -34.33605 150.30662 16158 ft 362 kts 54°
2026-05-04 09:04 -34.32396 150.33375 15725 ft 360 kts 54°
2026-05-04 09:04 -34.31214 150.36015 15295 ft 358 kts 55°
2026-05-04 09:04 -34.30004 150.38718 14847 ft 356 kts 54°
2026-05-04 09:05 -34.28778 150.41457 14396 ft 354 kts 55°
2026-05-04 09:05 -34.27614 150.44057 13969 ft 352 kts 55°
2026-05-04 09:05 -34.26442 150.46681 13536 ft 350 kts 55°
2026-05-04 09:05 -34.25279 150.49281 13106 ft 348 kts 55°
2026-05-04 09:06 -34.24122 150.51866 12686 ft 346 kts 55°
2026-05-04 09:07 -34.16225 150.69464 10036 ft 330 kts 56°
2026-05-04 09:08 -34.15111 150.71936 9825 ft 332 kts 56°
2026-05-04 09:08 -34.13997 150.74414 9417 ft 328 kts 56°
2026-05-04 09:08 -34.12914 150.76820 9026 ft 327 kts 56°
2026-05-04 09:08 -34.11825 150.79231 8637 ft 323 kts 56°
2026-05-04 09:09 -34.10739 150.81636 8245 ft 321 kts 56°
2026-05-04 09:09 -34.09672 150.84003 7972 ft 318 kts 56°
2026-05-04 09:09 -34.08613 150.86356 7990 ft 319 kts 56°
2026-05-04 09:09 -34.07544 150.88734 7996 ft 319 kts 56°
2026-05-04 09:10 -34.06470 150.91119 7998 ft 319 kts 56°
2026-05-04 09:10 -34.05401 150.93488 7987 ft 320 kts 57°
2026-05-04 09:10 -34.04328 150.95863 7998 ft 320 kts 57°
2026-05-04 09:10 -34.03296 150.98268 7993 ft 323 kts 63°
2026-05-04 09:11 -34.02969 151.00975 8019 ft 326 kts 93°
2026-05-04 09:11 -34.03731 151.03459 7992 ft 315 kts 124°
2026-05-04 09:11 -34.05253 151.05280 7995 ft 298 kts 141°
2026-05-04 09:11 -34.06856 151.06784 7876 ft 288 kts 143°
2026-05-04 09:12 -34.08585 151.07980 7522 ft 285 kts 160°
2026-05-04 09:12 -34.10473 151.08600 7196 ft 281 kts 172°
2026-05-04 09:14 -34.23618 151.11743 5986 ft 266 kts 170°
2026-05-04 09:14 -34.25410 151.12317 5827 ft 264 kts 156°
2026-05-04 09:14 -34.26846 151.13637 5462 ft 263 kts 125°
2026-05-04 09:14 -34.27579 151.15605 5123 ft 254 kts 94°
2026-05-04 09:15 -34.27694 151.17702 4814 ft 249 kts 85°
2026-05-04 09:15 -34.27401 151.19725 4465 ft 239 kts 58°
2026-05-04 09:15 -34.26385 151.21182 4154 ft 225 kts 31°
2026-05-04 09:15 -34.25064 151.22177 3859 ft 220 kts 25°
2026-05-04 09:17 -34.13748 151.22563 2986 ft 209 kts 347°
2026-05-04 09:18 -34.12309 151.22186 2972 ft 205 kts 347°
2026-05-04 09:18 -34.10938 151.21829 2832 ft 196 kts 347°
2026-05-04 09:18 -34.09625 151.21489 2580 ft 192 kts 348°
2026-05-04 09:18 -34.08345 151.21156 2432 ft 181 kts 347°
2026-05-04 09:19 -34.07137 151.20842 2150 ft 167 kts 348°
2026-05-04 09:19 -34.06030 151.20555 1936 ft 151 kts 348°
2026-05-04 09:19 -34.05032 151.20296 1698 ft 142 kts 348°
2026-05-04 09:19 -34.04055 151.20042 1503 ft 142 kts 348°
2026-05-04 09:20 -34.03088 151.19791 1335 ft 140 kts 348°
2026-05-04 09:20 -34.02146 151.19547 1144 ft 136 kts 349°
2026-05-04 09:20 -34.01213 151.19304 967 ft 135 kts 349°
2026-05-04 09:20 -34.00283 151.19064 793 ft 135 kts 349°
2026-05-04 09:21 -33.99344 151.18813 626 ft 134 kts 349°
2026-05-04 09:21 -33.98423 151.18576 470 ft 135 kts 349°
2026-05-04 09:21 -33.97511 151.18341 259 ft 133 kts 348°
2026-05-04 09:21 -33.96605 151.18106 83 ft 133 kts 350°
2026-05-04 09:22 -33.95720 151.17880 15 ft 116 kts 349°
2026-05-04 09:22 -33.95097 151.17720 18 ft 68 kts 348°
2026-05-04 09:22 -33.94764 151.17648 23 ft 34 kts 354°
2026-05-04 09:22 -33.94590 151.17659 25 ft 17 kts 14°
2026-05-04 09:23 -33.94484 151.17696 24 ft 11 kts 19°
2026-05-04 09:23 -33.94423 151.17720 22 ft 7 kts 18°
2026-05-04 09:23 -33.94385 151.17734 21 ft 5 kts 17°
2026-05-04 09:23 -33.94341 151.17738 20 ft 7 kts 353°
2026-05-04 09:25 -33.93861 151.17603 9 ft 17 kts 349°
2026-05-04 09:25 -33.93744 151.17570 9 ft 15 kts 348°
2026-05-04 09:26 -33.93634 151.17543 9 ft 15 kts 347°
2026-05-04 09:26 -33.93530 151.17516 9 ft 15 kts 347°
2026-05-04 09:26 -33.93430 151.17503 12 ft 13 kts
2026-05-04 09:26 -33.93349 151.17496 15 ft 10 kts 347°
2026-05-04 09:27 -33.93282 151.17477 17 ft 9 kts 348°
2026-05-04 09:27 -33.93206 151.17459 18 ft 12 kts 348°
2026-05-04 09:27 -33.93121 151.17436 20 ft 12 kts 348°
2026-05-04 09:27 -33.93038 151.17415 21 ft 10 kts 348°
2026-05-04 09:28 -33.92984 151.17445 21 ft 10 kts 87°
2026-05-04 09:28 -33.92995 151.17535 22 ft 11 kts 102°
2026-05-04 09:28 -33.93012 151.17633 21 ft 12 kts 101°
2026-05-04 09:28 -33.93043 151.17729 22 ft 12 kts 116°
2026-05-04 09:29 -33.93067 151.17830 22 ft 12 kts 99°
2026-05-04 09:29 -33.93080 151.17931 24 ft 11 kts 99°
2026-05-04 09:29 -33.93094 151.18019 25 ft 9 kts 100°
2026-05-04 09:29 -33.93101 151.18069 26 ft 3 kts 102°
2026-05-04 09:30 -33.93113 151.18085 27 ft 2 kts 162°
2026-05-04 09:30 -33.93137 151.18083 26 ft 4 kts 189°
2026-05-04 09:30 -33.93172 151.18076 26 ft 3 kts 190°
2026-05-04 09:30 -33.93179 151.18074 26 ft 0 kts 190°
2026-05-04 09:31 -33.93180 151.18074 26 ft 0 kts 190°